STARLINK-34093 (64015 NORAD) Tracking and Keplerian Element Data

This shows tracking and keplerian element data for the satellite.

Feedback or suggestion? Click here.




ElementValue
Catalog64015
NameSTARLINK-34093
Epoch Orbit3486
Epoch Day353.95885904
Epoch Year2025
RAAN88.0444
Inclination42.9966
Eccentricity0.0002478
Argument of Perigee274.8955
Mean Anonmoly85.1613
Mean Motion15.27590107
Decay Rate0.00015495
L11 64015U 25101X 25353.95885904 .00015495 00000+0 57123-3 0 9995
L22 64015 42.9966 88.0444 0002478 274.8955 85.1613 15.27590107 34865



Live tracking and technical data element details for STARLINK-34093 (NORAD 64015). STARLINK-34093 can be tracked NOW for your location showing map with azimuth and elevation plus other details from your city location.







IsCatalogInMostPopularTable: catalog: 64015, numindb: 11
Update: records affected: 1



GetName: 64015 STARLINK-34093

Hit Count: updated at: Mon, 20 Apr 2026 08:54:57 GMT